FW0211 Weather Reports


time (UTC)temp
F
wind
direction
speed
knots
gust
knots
rain 1hr
in
rain 24hr
in
rain mn
in
humidity
%
barometer
mb
20260506130025 77 360 5.2 8.7 0.00 0.00 0.00 94 1011.1
20260506124522 76 105 6.1 8.7 0.00 0.00 0.00 94 1011.0
20260506123022 76 125 6.1 10.4 0.00 0.00 0.00 94 1011.0
20260506121521 76 65 7.8 12.2 0.00 0.00 0.00 94 1010.6
20260506120023 76 360 7.8 13.0 0.00 0.00 0.00 94 1010.5
20260506114523 76 360 7.0 10.4 0.00 0.00 0.00 94 1010.2
20260506113020 76 360 7.0 10.4 0.00 0.00 0.00 94 1010.1
20260506111519 76 138 5.2 7.8 0.00 0.00 0.00 94 1010.1
20260506110018 76 129 6.1 9.6 0.00 0.00 0.00 94 1010.1
20260506104539 76 140 7.0 12.2 0.00 0.00 0.00 94 1010.1
20260506103017 76 360 7.0 13.0 0.00 0.00 0.00 94 1009.9
20260506101517 76 143 6.1 10.4 0.00 0.00 0.00 94 1009.7
20260506100017 76 126 6.1 8.7 0.00 0.00 0.00 94 1009.8
20260506094514 76 360 5.2 10.4 0.00 0.00 0.00 94 1010.0
20260506093014 76 122 7.8 12.2 0.00 0.00 0.00 94 1009.9
20260506091513 76 360 7.0 10.4 0.00 0.00 0.00 94 1010.1
20260506090012 76 155 8.7 11.3 0.00 0.00 0.00 93 1010.1
20260506084510 76 140 7.8 11.3 0.00 0.00 0.00 93 1010.2
20260506083021 76 161 7.8 11.3 0.00 0.00 0.00 93 1010.4
20260506081509 76 129 5.2 8.7 0.00 0.00 0.00 93 1010.3
20260506073006 76 137 8.7 13.0 0.00 0.00 0.00 93 1010.6
20260506071506 76 166 8.7 12.2 0.00 0.00 0.00 93 1010.6
20260506061557 76 142 9.6 15.6 0.00 0.00 0.00 93 1010.7
20260506044556 76 139 13.9 19.1 0.00 0.00 0.00 92 1010.8
20260506043053 76 144 13.9 20.0 0.00 0.00 0.00 92 1010.7
20260506041547 76 165 14.8 19.1 0.00 0.00 0.00 92 1010.7
20260506040050 76 145 15.6 24.3 0.00 0.00 0.00 92 1010.6
20260506034546 76 137 16.5 22.6 0.00 0.00 0.00 92 1010.6
20260506033044 76 161 16.5 23.5 0.00 0.00 0.00 92 1010.8
20260506031546 76 360 15.6 22.6 0.00 0.00 0.00 92 1010.6
20260506030043 76 164 16.5 21.7 0.00 0.00 0.00 92 1010.5
20260506024546 76 171 14.8 20.0 0.00 0.00 0.00 92 1010.3
20260506023041 76 360 14.8 19.1 0.00 0.00 0.00 92 1010.1
20260506021553 76 150 13.9 18.2 0.00 0.00 0.00 92 1009.8
20260506020041 77 143 13.9 16.5 0.00 0.00 0.00 92 1009.7
20260506014540 76 141 12.2 17.4 0.00 0.00 0.00 92 1009.4
20260506013044 76 122 13.0 18.2 0.00 0.00 0.00 92 1009.3
20260506011545 76 360 14.8 19.1 0.00 0.00 0.00 92 1009.0
20260506010047 77 155 13.0 17.4 0.00 0.00 0.00 92 1009.0
20260506004538 77 157 14.8 20.9 0.00 0.00 0.00 91 1009.0
20260506003038 77 144 12.2 19.1 0.00 0.00 0.00 91 1009.0
20260506001537 77 145 15.6 21.7 0.00 0.00 0.00 91 1008.8
20260506000038 77 140 13.0 17.4 0.00 0.00 0.00 91 1008.9
20260505234559 77 142 13.9 17.4 0.00 0.00 0.00 90 1009.1
20260505233035 77 161 13.9 18.2 0.00 0.00 0.00 90 1009.2
20260505231534 77 151 13.9 20.0 0.00 0.00 0.00 89 1009.1
20260505230033 78 113 13.9 19.1 0.00 0.00 0.00 89 1009.2
20260505224533 78 135 13.0 17.4 0.00 0.00 0.00 89 1009.2
20260505223032 78 177 12.2 17.4 0.00 0.00 0.00 88 1009.3
20260505221531 78 149 12.2 18.2 0.00 0.00 0.00 88 1009.2
20260505220030 78 192 12.2 18.2 0.00 0.00 0.00 88 1009.4
20260505214536 79 169 12.2 17.4 0.00 0.00 0.00 87 1009.3
20260505213027 79 178 11.3 18.2 0.00 0.00 0.00 88 1009.6
20260505211538 79 154 12.2 17.4 0.00 0.00 0.00 87 1009.8
20260505210025 79 151 13.0 18.2 0.00 0.00 0.00 87 1010.1
20260505204525 79 156 13.0 17.4 0.00 0.00 0.00 86 1010.1
20260505203025 79 121 13.9 18.2 0.00 0.00 0.00 86 1010.4
20260505201522 79 167 13.0 17.4 0.00 0.00 0.00 86 1010.4
20260505200021 79 163 13.0 19.1 0.00 0.00 0.00 86 1010.6
20260505194519 79 157 13.0 19.1 0.00 0.00 0.00 86 1010.4
20260505193018 79 167 13.0 20.0 0.00 0.00 0.00 86 1010.4
20260505191517 79 161 14.8 21.7 0.00 0.00 0.00 87 1010.5
20260505190016 78 180 13.9 20.0 0.00 0.00 0.00 87 1010.6
20260505184524 78 186 13.9 18.2 0.00 0.00 0.00 88 1010.7
20260505183014 78 112 12.2 17.4 0.00 0.00 0.00 87 1011.1
20260505181514 78 173 12.2 17.4 0.00 0.00 0.00 86 1011.0
20260505180012 78 166 12.2 20.9 0.00 0.00 0.00 86 1011.1
20260505174512 78 146 13.9 21.7 0.00 0.00 0.00 86 1011.3
20260505173014 78 169 14.8 21.7 0.00 0.00 0.00 86 1011.3
20260505171511 78 360 13.0 19.1 0.00 0.00 0.00 86 1011.4
20260505170012 78 360 13.0 19.1 0.00 0.00 0.00 85 1011.4
20260505164510 78 173 13.0 19.1 0.00 0.00 0.00 85 1011.4
20260505163009 78 360 13.0 22.6 0.00 0.00 0.00 85 1011.1
20260505161508 78 191 13.9 20.9 0.00 0.00 0.00 85 1011.2
20260505153003 77 194 14.8 21.7 0.00 0.00 0.00 86 1010.8
20260505151501 77 163 13.0 19.1 0.00 0.00 0.00 86 1010.8
20260505150104 77 166 13.0 17.4 0.00 0.00 0.00 86 1011.0
20260505140106 77 173 13.9 18.2 0.00 0.00 0.00 86 1010.9